Location: Ergnies
(50.0854°N, 2.0375°E)
Time: 10:26:59
(UTC+00:00)

Meteor 2-19 Rocket - Pass Details

Date: 14 January 2026
Orbit: 935 x 959 km, 82.5° (Epoch: 10 February)

Event Time Altitude Azimuth Distance (km) Brightness Sun altitude
Rises 06:32:35 0° 348° (NNW) 3,617 7.2 -11.3°
Reaches altitude 10° 06:35:05 10° 347° (NNW) 2,666 6.5 -10.9°
Maximum altitude 06:41:09 73° 264° (W) 981 4.4 -10.0°
Drops below altitude 10° 06:47:09 10° 181° (S) 2,639 7.1 -9.1°
Sets 06:49:37 0° 179° (S) 3,579 7.8 -8.8°
